Flag for Denmark Weather past 2 weeks in Randers, Denmark

Now
32 °F

Passing clouds.


Feels Like: 24 °F
Forecast: 34 / 41 °F
Wind: 9 mph from West

Location: Tirstrup

Current Time: Jan 25, 2015 at 4:57:08 AM

Latest Report: Jan 25, 2015 at 4:20 AM


Visibility: N/A

Pressure: 30.07 "Hg

Humidity: 87%

Dew point: 28 °F

Location of RandersLocation

Historic Weather in Randers — Graph

°F

Randers temperature yesterday

Maximum temperature yesterday: 34 °F (at 1:50 PM)
Minimum temperature yesterday: 28 °F (at 8:50 PM)
Average temperature yesterday: 31 °F

Past Weeks' High & Low Weather Summary

 TemperatureHumidityPressure
High50 °F (Jan 10, 9:20 AM)100% (Jan 23, 4:20 PM)30.27 "Hg (Jan 23, 4:20 PM)
Low27 °F (Jan 23, 5:20 AM)57% (Jan 10, 4:50 PM)28.97 "Hg (Jan 10, 11:50 AM)
Average37 °F83%29.70 "Hg
* Reported Jan 10 3:20 AM — Jan 25 3:20 AM, Randers, Weather by CustomWeather, © 2014

Note: Actual official high and low records may vary slightly from our data, if they occured in-between our weather recording intervals... More about our weather records

Advertising

Randers weather history for previous 24 hours

 ConditionsComfort  
Time TempWeatherWind HumidityBarometerVisibility
3:20 AM
Jan 25
30 °FChilly.12 mph93%30.07 "HgN/A
2:50 AM30 °FChilly.10 mph93%30.07 "HgN/A
2:20 AM30 °FChilly.8 mph86%30.04 "HgN/A
1:50 AM30 °FChilly.7 mph93%30.04 "HgN/A
1:20 AM30 °FPassing clouds.6 mph86%30.04 "HgN/A
12:50 AM28 °FPassing clouds.6 mph93%30.04 "HgN/A
12:20 AM30 °FChilly.7 mph93%30.04 "HgN/A
11:50 PM
Jan 24
30 °FChilly.8 mph93%30.04 "HgN/A
11:20 PM28 °FChilly.9 mph93%30.04 "HgN/A
10:20 PM28 °FPassing clouds.6 mph93%30.01 "HgN/A
9:50 PM30 °FPassing clouds.8 mph93%30.01 "HgN/A
9:20 PM28 °FChilly.8 mph93%30.01 "HgN/A
8:50 PM28 °FChilly.5 mph93%30.01 "HgN/A
8:20 PM30 °FChilly.6 mph93%30.01 "HgN/A
7:50 PM30 °FChilly.7 mph93%29.98 "HgN/A
7:20 PM32 °FChilly.6 mph93%29.98 "HgN/A
6:50 PM30 °FChilly.8 mph93%29.98 "Hg4 mi
6:20 PM30 °FChilly.6 mph93%29.95 "Hg3 mi
5:50 PM30 °FIce fog.6 mph93%29.95 "Hg2 mi
5:20 PM30 °FIce fog.6 mph93%29.95 "Hg2 mi
4:50 PM32 °FIce fog.5 mph93%29.92 "Hg2 mi
4:20 PM32 °FIce fog.3 mph93%29.92 "Hg2 mi
3:50 PM34 °FFog.3 mph93%29.92 "Hg2 mi
3:20 PM34 °FFog.6 mph93%29.89 "Hg2 mi
2:50 PM34 °FFog.5 mph93%29.89 "Hg2 mi
2:20 PM34 °FFog.5 mph93%29.89 "Hg2 mi
1:50 PM34 °FLight snow. Fog.5 mph93%29.89 "Hg1 mi
1:20 PM32 °FLight snow. Ice fog.6 mph93%29.89 "Hg1 mi
12:50 PM32 °FLight snow. Low clouds.8 mph93%29.89 "Hg1 mi
12:20 PM32 °FLight snow. Ice fog.9 mph93%29.89 "Hg2 mi
11:50 AM32 °FSleet. Ice fog.8 mph93%29.86 "Hg1 mi
11:20 AM32 °FLight snow. Low clouds.9 mph93%29.89 "Hg1 mi
10:50 AM32 °FLight snow. Low clouds.9 mph87%29.89 "Hg1 mi
10:20 AM32 °FLight snow. Low clouds.9 mph87%29.89 "Hg1 mi
9:50 AM30 °FLight snow. Low clouds.13 mph93%29.89 "Hg1 mi
9:20 AM30 °FLight snow. Low clouds.10 mph93%29.89 "Hg1 mi
8:50 AM30 °FLight snow. Low clouds.12 mph93%29.89 "Hg1 mi
8:20 AM30 °FSnow. Low clouds.9 mph93%29.89 "Hg1 mi
7:50 AM30 °FSnow. Low clouds.9 mph93%29.89 "Hg1 mi
7:20 AM30 °FSnow. Low clouds.12 mph86%29.89 "Hg1 mi
6:50 AM30 °FLight snow. Overcast.12 mph86%29.89 "Hg1 mi
6:20 AM30 °FLight snow. Passing clouds.12 mph80%29.92 "Hg2 mi
5:50 AM30 °FOvercast.12 mph80%29.92 "Hg5 mi
5:20 AM30 °FPassing clouds.12 mph80%29.95 "Hg6 mi
4:50 AM30 °FPassing clouds.12 mph80%29.95 "Hg5 mi
4:20 AM30 °FPassing clouds.9 mph80%29.98 "Hg5 mi
Weather by CustomWeather, © 2014

See weather overviewHow to use our weather pages